TimeCST,TemperatureF,Dew PointF,Humidity,Sea Level PressureIn,VisibilityMPH,Wind Direction,Wind SpeedMPH,Gust SpeedMPH,PrecipitationIn,Events,Conditions,WindDirDegrees,DateUTC
12:53 AM,5.0,-4.0,66,30.37,10.0,SSW,4.6,-,N/A,,Overcast,200,2013-02-01 06:53:00
1:53 AM,8.1,-0.9,67,30.32,10.0,South,6.9,-,N/A,,Overcast,170,2013-02-01 07:53:00
2:53 AM,8.1,-0.9,67,30.31,10.0,SSE,5.8,-,N/A,,Overcast,150,2013-02-01 08:53:00
3:53 AM,10.9,1.9,67,30.27,10.0,SSW,8.1,-,N/A,,Overcast,200,2013-02-01 09:53:00
4:53 AM,12.0,3.9,70,30.24,10.0,South,5.8,-,N/A,,Overcast,180,2013-02-01 10:53:00
6:53 AM,12.0,6.1,77,30.17,10.0,South,9.2,-,N/A,,Overcast,180,2013-02-01 12:53:00
7:53 AM,12.9,6.1,74,30.17,10.0,South,12.7,-,N/A,,Mostly Cloudy,180,2013-02-01 13:53:00
8:53 AM,16.0,9.0,74,30.13,10.0,SSE,8.1,-,N/A,,Clear,160,2013-02-01 14:53:00
9:53 AM,19.9,12.9,74,30.09,10.0,SSW,8.1,-,N/A,,Clear,200,2013-02-01 15:53:00
10:53 AM,25.0,17.1,72,30.07,10.0,SSW,10.4,-,N/A,,Clear,210,2013-02-01 16:53:00
12:53 PM,33.1,25.0,72,30.02,10.0,SW,10.4,-,N/A,,Overcast,230,2013-02-01 18:53:00
2:53 PM,41.0,33.1,73,30.00,10.0,NW,13.8,-,N/A,,Overcast,310,2013-02-01 20:53:00
3:53 PM,39.0,33.1,79,30.01,10.0,WNW,16.1,-,0.00,Rain,Light Rain,290,2013-02-01 21:53:00
4:53 PM,39.9,34.0,79,30.02,10.0,WNW,16.1,-,0.00,,Overcast,290,2013-02-01 22:53:00
5:53 PM,39.0,33.1,79,30.04,10.0,WNW,16.1,-,N/A,,Overcast,300,2013-02-01 23:53:00
6:53 PM,36.0,30.9,82,30.08,10.0,NW,15.0,-,N/A,,Overcast,310,2013-02-02 00:53:00
7:53 PM,35.1,30.0,82,30.10,10.0,NW,8.1,-,N/A,,Overcast,310,2013-02-02 01:53:00
8:53 PM,35.1,30.0,82,30.11,10.0,WNW,6.9,-,N/A,,Overcast,290,2013-02-02 02:53:00
9:14 PM,35.6,30.2,81,30.03,10.0,West,6.9,-,N/A,,Overcast,280,2013-02-02 03:14:00
9:53 PM,35.1,30.0,82,30.10,10.0,West,6.9,-,N/A,,Overcast,270,2013-02-02 03:53:00
10:53 PM,35.1,30.0,82,30.11,10.0,WNW,9.2,-,N/A,,Overcast,290,2013-02-02 04:53:00
11:32 PM,33.8,30.2,87,30.04,10.0,WNW,5.8,-,N/A,,Mostly Cloudy,300,2013-02-02 05:32:00
11:53 PM,34.0,30.0,85,30.09,10.0,SW,3.5,-,N/A,,Mostly Cloudy,220,2013-02-02 05:53:00